FW1924 Weather Reports


Display with metric or nautical units.
time (UTC)temp
F
wind
direction
speed
MPH
gust
MPH
rain 1hr
in
rain 24hr
in
rain mn
in
humidity
%
barometer
mb
20260831114549 59 191 0.0 0.0 0.00 0.01 0.00 71 1007.5
20260831113042 60 184 0.0 0.0 0.00 0.01 0.00 72 1007.5
20260831111532 60 202 0.0 0.0 0.00 0.01 0.00 71 1007.5
20260831110048 60 202 0.0 0.0 0.00 0.01 0.00 71 1007.3
20260831104539 60 204 0.0 0.0 0.00 0.01 0.00 71 1007.3
20260831103031 59 208 0.0 0.0 0.00 0.01 0.00 70 1007.2
20260831101528 59 207 0.0 0.0 0.00 0.01 0.00 71 1007.2
20260831100024 59 201 0.0 0.0 0.00 0.01 0.00 73 1007.1
20260831094514 59 202 0.0 0.0 0.00 0.01 0.00 72 1007.1
20260831093004 60 202 0.0 0.0 0.00 0.01 0.00 70 1007.0
20260831091555 60 202 0.0 0.0 0.00 0.01 0.00 69 1007.0
20260831084535 62 202 0.0 0.0 0.00 0.01 0.00 67 1006.9
20260831083025 62 202 0.0 0.0 0.00 0.01 0.00 66 1006.9
20260831081514 63 201 0.0 0.0 0.00 0.01 0.00 65 1007.0
20260831080013 63 200 0.0 0.0 0.00 0.01 0.00 66 1007.0
20260831074513 63 195 0.0 0.0 0.00 0.01 0.00 66 1007.1
20260831073022 63 185 0.0 0.0 0.00 0.01 0.00 66 1007.2
20260831071504 63 212 0.0 0.0 0.00 0.01 0.00 66 1007.2
20260831070056 63 218 0.0 0.0 0.00 0.01 0.00 66 1007.0
20260831064556 63 223 0.0 0.0 0.00 0.01 0.00 67 1007.0
20260831063045 63 254 0.0 0.0 0.00 0.01 0.00 67 1007.1
20260831061556 63 259 0.0 0.0 0.00 0.01 0.00 67 1007.2
20260831060041 63 260 0.0 0.0 0.00 0.01 0.00 67 1007.2
20260831054534 63 292 0.0 0.0 0.00 0.01 0.01 67 1007.1
20260831053027 63 302 0.0 0.0 0.00 0.01 0.01 66 1007.2
20260831051525 63 309 0.0 0.0 0.00 0.01 0.01 66 1007.2
20260831050110 63 313 0.0 0.0 0.00 0.01 0.01 66 1007.2
20260831044509 64 313 0.0 0.0 0.00 0.01 0.01 65 1006.9
20260831043010 65 313 0.0 0.0 0.00 0.01 0.01 64 1007.0
20260831041502 65 313 0.0 0.0 0.00 0.01 0.01 63 1006.8
20260831040001 66 313 0.0 0.0 0.00 0.01 0.01 63 1006.8
20260831034505 66 313 0.0 0.0 0.00 0.01 0.01 62 1006.7
20260831033003 66 314 0.0 0.0 0.00 0.01 0.01 61 1006.6
20260831031501 67 323 0.0 0.0 0.00 0.01 0.01 60 1006.4
20260831030110 67 327 0.0 0.0 0.00 0.01 0.01 59 1006.3
20260831024611 69 350 0.0 0.0 0.00 0.01 0.01 59 1006.2
20260831023038 70 350 0.0 0.0 0.00 0.01 0.01 57 1006.1
20260831021531 71 350 0.0 0.0 0.00 0.01 0.01 54 1005.9
20260831020023 72 350 0.0 0.0 0.00 0.01 0.01 50 1005.7
20260831014528 73 350 0.0 0.0 0.00 0.01 0.01 49 1005.8
20260831013006 74 350 0.0 0.0 0.00 0.01 0.01 49 1005.7
20260831011604 74 350 0.0 0.0 0.00 0.01 0.01 48 1005.9
20260831010049 74 321 0.0 1.0 0.00 0.01 0.01 48 1005.9
20260831004550 74 360 0.0 2.0 0.00 0.02 0.01 49 1005.9
20260831003014 75 360 0.0 1.0 0.00 0.02 0.01 48 1006.0
20260831001506 75 355 1.0 9.0 0.00 0.02 0.01 47 1006.0
20260831000105 76 355 1.0 11.0 0.00 0.02 0.01 47 1005.9
20260830234605 77 360 0.0 14.0 0.00 0.02 0.01 47 1006.0
20260830233058 78 342 0.0 10.0 0.00 0.02 0.01 46 1006.1
20260830231519 80 17 1.0 8.0 0.00 0.02 0.01 43 1006.2
20260830230020 80 355 1.0 12.0 0.00 0.02 0.01 44 1006.3
20260830224508 80 22 0.0 10.0 0.00 0.02 0.01 44 1006.5
20260830223101 80 333 2.0 10.0 0.00 0.02 0.01 42 1006.5
20260830221558 82 11 1.0 11.0 0.00 0.02 0.01 40 1006.5
20260830220049 82 348 0.0 10.0 0.00 0.02 0.01 38 1006.7
20260830214550 82 345 0.0 15.0 0.00 0.03 0.01 41 1006.7
20260830213040 83 347 0.0 10.0 0.00 0.03 0.01 40 1006.8
20260830211533 82 242 0.0 9.0 0.00 0.03 0.01 40 1006.9
20260830210034 80 297 0.0 10.0 0.00 0.03 0.01 42 1007.2
20260830204526 78 355 2.0 9.0 0.00 0.03 0.01 46 1007.1
20260830203029 76 32 0.0 0.0 0.00 0.03 0.01 51 1007.3
20260830201508 75 327 0.0 11.0 0.00 0.03 0.01 49 1007.3
20260830200100 77 11 0.0 1.0 0.00 0.03 0.01 47 1007.1
20260830194551 80 61 0.0 0.0 0.00 0.04 0.01 44 1007.5
20260830193051 83 153 1.0 10.0 0.00 0.04 0.01 44 1007.5
20260830191539 82 180 4.0 12.0 0.00 0.04 0.01 47 1007.5
20260830190034 81 150 2.0 16.0 0.00 0.04 0.01 47 1007.8
20260830184525 80 182 4.0 11.0 0.00 0.04 0.01 48 1008.0
20260830183014 80 173 0.0 11.0 0.00 0.04 0.01 50 1008.1
20260830181503 79 105 0.0 11.0 0.00 0.04 0.01 52 1008.3
20260830180052 78 190 6.0 13.0 0.00 0.04 0.01 50 1008.2
20260830174551 77 147 1.0 11.0 0.00 0.05 0.01 52 1008.2
20260830173045 76 140 0.0 8.0 0.00 0.05 0.01 56 1008.2
20260830171524 74 167 0.0 14.0 0.00 0.05 0.01 60 1008.2
20260830170013 72 136 2.0 15.0 0.00 0.05 0.01 62 1008.2
20260830164619 70 163 3.0 12.0 0.00 0.05 0.01 64 1008.2
20260830163104 69 153 5.0 15.0 0.00 0.05 0.01 65 1008.1
20260830161543 68 162 5.0 11.0 0.00 0.05 0.01 68 1008.1
20260830160033 67 170 7.0 15.0 0.00 0.05 0.01 69 1007.9
20260830154524 66 157 5.0 15.0 0.00 0.06 0.01 72 1007.8
20260830153018 64 146 6.0 12.0 0.00 0.06 0.01 75 1007.9
20260830151511 63 154 0.0 6.0 0.00 0.06 0.01 79 1007.8
20260830150005 62 160 6.0 11.0 0.00 0.06 0.01 82 1007.8
20260830144602 60 182 0.0 9.0 0.00 0.07 0.01 86 1007.9
20260830143044 60 196 0.0 7.0 0.00 0.07 0.01 87 1007.9
20260830141531 58 202 0.0 1.0 0.00 0.07 0.01 87 1008.1
20260830140020 58 224 3.0 9.0 0.00 0.07 0.01 87 1007.9
20260830134514 58 222 0.0 0.0 0.00 0.07 0.01 87 1008.1
20260830133001 58 177 0.0 1.0 0.00 0.07 0.01 86 1007.7
20260830131615 59 185 0.0 7.0 0.01 0.07 0.01 86 1007.7
20260830130050 59 174 0.0 0.0 0.01 0.07 0.01 86 1007.3
20260830124602 59 184 0.0 0.0 0.01 0.07 0.01 85 1007.3
20260830123039 59 155 0.0 1.0 0.01 0.07 0.01 84 1007.3
20260830121523 60 112 0.0 0.0 0.00 0.06 0.00 83 1007.1
20260830120014 60 171 0.0 0.0 0.00 0.06 0.00 81 1006.8